Probability
6 6 4 3 3 2 1 1 0 0 1 0 0 0 0 0 0 0 0 0 0 0 0 0 0 0 0 0 0 0 0 0 0 0 0 0 0 0 0 0 0 0 0
16 12 7 6 6 5 3 2 1 1 1 1 0 0 0 0 0 0 0 0 0 0 0 0 0 0 0 0 0 0 0 0 0 0 0 0 0 0 0 0 0 0 0
38 27 17 15 16 14 9 4 1 2 2 3 3 1 0 0 0 0 0 0 0 0 0 0 0 0 0 0 0 0 0 0 0 0 0 0 0 0 0 0 0 0 0
62 50 35 30 32 29 15 7 3 2 2 4 5 4 3 1 0 0 0 0 0 0 0 0 0 0 0 0 0 0 0 0 0 0 0 0 0 0 0 0 0 0 0
73 68 56 48 52 48 30 16 10 6 3 3 5 7 7 4 1 0 0 0 0 0 0 0 0 0 0 0 0 0 0 0 0 0 0 0 0 0 0 0 0 0 0
73 77 75 69 72 70 53 34 24 18 11 5 5 7 8 5 1 0 0 0 0 0 0 0 0 0 0 0 0 0 0 0 0 0 0 0 0 0 0 0 0 0 0
70 77 83 83 84 82 70 50 36 29 21 11 5 5 6 4 1 0 0 0 0 0 0 0 0 0 0 0 0 0 0 0 0 0 0 0 0 0 0 0 0 0 0
56 61 69 74 77 75 66 50 37 29 21 13 6 3 4 3 1 0 0 0 0 0 0 0 0 0 0 0 0 0 0 0 0 0 0 0 0 0 0 0 0 0 0
30 33 39 46 50 50 44 35 27 20 13 10 7 5 5 5 2 1 0 0 0 0 0 0 0 0 0 0 0 0 0 0 0 0 0 0 0 0 0 0 0 0 0
10 12 16 20 22 21 19 16 13 10 7 7 6 6 8 7 3 1 0 0 0 0 0 0 0 0 0 0 0 0 0 0 0 0 0 0 0 0 0 0 0 0 0
2 3 5 7 7 5 4 3 3 4 5 5 5 5 6 5 2 0 0 0 0 0 0 0 0 0 0 0 0 0 0 0 0 0 0 0 0 0 0 0 0 0 0
0 0 1 2 1 1 0 0 0 1 2 3 2 2 2 2 1 0 0 0 0 0 0 0 0 0 0 0 0 0 0 0 0 0 0 0 0 0 0 0 0 0 0
0 0 0 0 0 0 0 0 0 0 0 0 0 0 1 1 0 0 0 0 0 0 0 0 0 0 0 0 0 0 0 0 0 0 0 0 0 0 0 0 0 0 0
0 0 0 0 0 0 0 0 0 0 0 0 0 0 0 0 0 0 0 0 0 0 0 0 0 0 0 0 0 0 0 0 0 0 0 0 0 0 0 0 0 0 0
0 0 0 0 0 0 0 0 0 0 0 0 0 0 0 0 0 0 0 0 0 0 0 0 0 0 0 0 0 0 0 0 0 0 0 0 0 0 0 0 0 0 0
0 0 0 0 0 0 0 0 0 0 0 0 0 0 0 0 0 0 0 0 0 0 0 0 0 0 0 0 0 0 0 0 0 0 0 0 0 0 0 0 0 0 0
0 0 0 0 0 0 0 0 0 0 0 0 0 0 0 0 0 0 0 0 0 0 0 0 0 0 0 0 0 0 0 0 0 0 0 0 0 0 0 0 0 0 0
0 0 0 0 0 0 0 0 0 0 0 0 0 0 0 0 0 0 0 0 0 0 0 0 0 0 0 0 0 0 0 0 0 0 0 0 0 0 0 0 0 0 0
0 0 0 0 0 0 0 0 0 0 0 0 0 0 0 0 0 0 0 0 0 0 0 0 0 0 0 0 0 0 0 0 0 0 0 0 0 0 0 0 0 0 0
0 0 0 0 0 0 0 0 0 0 0 0 0 0 0 0 0 0 0 0 0 0 0 0 0 0 0 0 0 0 0 0 0 0 0 0 0 0 0 0 0 0 0
0 0 0 0 0 0 0 0 0 0 0 0 0 0 0 0 0 0 0 0 0 0 0 0 0 0 0 0 0 0 0 0 0 0 0 0 0 0 0 0 0 0 0
0 0 0 0 0 0 0 0 0 0 0 0 0 0 0 0 0 0 0 0 0 0 0 0 0 0 0 0 0 0 0 0 0 0 0 0 0 0 0 0 0 0 0
0 0 0 0 0 0 0 0 0 0 0 0 0 0 0 0 0 0 0 0 0 0 0 0 0 0 0 0 0 0 0 0 0 0 0 0 0 0 0 0 0 0 0
0 0 0 0 0 0 0 0 0 0 0 0 0 0 0 0 0 0 0 0 0 0 0 0 0 0 0 0 0 0 0 0 0 0 0 0 0 0 0 0 0 0 0
0 0 0 0 0 0 0 0 0 0 0 0 0 0 0 0 0 0 0 0 0 0 0 0 0 0 0 0 0 0 0 0 0 0 0 0 0 0 0 0 0 0 0
0 0 0 0 0 0 0 0 0 0 0 0 0 0 0 0 0 0 0 0 0 0 0 0 0 0 0 0 0 0 0 0 0 0 0 0 0 0 0 0 0 0 0
Wind_Speed
6 5 5 4 3 3 2 3 3 3 4 5 5 4 4 4 4 4 3 3 4 4 4 5 4 3 2 1 1 1 1 1 3 3 3 4 6 6 4 5 6 5 5
6 5 6 5 4 3 3 4 4 4 5 5 6 6 6 5 5 5 5 4 4 4 5 5 5 3 2 1 1 1 1 2 2 3 2 3 5 7 7 6 6 7 6
7 5 5 5 5 5 4 4 4 5 5 5 6 6 6 6 6 6 5 5 5 5 4 5 5 5 3 2 1 1 2 2 2 2 3 2 3 6 7 5 5 3 8
8 6 5 4 4 4 4 4 4 5 5 6 7 7 7 7 7 7 6 6 6 5 5 5 5 5 5 4 3 3 2 3 3 2 3 2 2 3 6 5 4 3 4
7 6 6 5 5 4 4 4 5 4 4 5 6 7 7 7 7 8 7 8 7 6 6 6 6 8 8 6 4 4 4 3 3 3 4 3 3 3 5 5 5 4 4
5 5 4 2 3 4 3 3 4 4 3 3 4 5 7 6 9 11 7 6 7 8 8 7 8 9 12 13 12 10 7 6 4 4 4 5 7 6 4 4 4 4 4
4 4 4 1 0 1 2 3 3 3 4 4 4 4 5 6 11 11 9 3 3 4 6 7 7 8 11 8 11 13 12 14 12 7 6 7 6 7 8 7 6 6 5
7 6 5 4 3 2 2 3 4 4 4 4 5 4 4 8 12 11 9 4 4 4 5 5 6 6 8 8 7 7 7 8 10 9 8 7 6 6 10 10 9 6 4
8 6 6 5 4 4 3 4 3 4 4 4 4 4 4 6 11 11 9 4 4 5 5 4 3 3 4 7 5 5 5 5 5 8 8 5 3 4 5 6 6 5 4
6 6 5 4 4 4 4 4 3 3 3 3 3 4 4 5 10 12 10 3 3 3 2 1 2 2 3 4 3 4 5 4 3 3 4 5 5 4 6 6 7 6 4
5 5 5 4 4 3 4 4 4 3 3 3 3 3 3 4 10 11 9 2 1 1 1 1 0 4 3 3 4 3 4 3 2 3 3 4 3 3 4 4 4 4 4
3 3 4 4 5 5 4 4 4 3 3 3 3 3 2 2 5 6 7 4 1 2 1 1 2 4 2 2 2 2 2 1 1 1 1 2 3 3 3 4 3 2 2
2 2 3 4 4 5 5 5 4 3 3 2 2 2 2 1 3 6 5 4 3 1 1 2 4 4 2 1 2 2 2 1 1 1 1 1 2 3 3 2 2 1 0
2 2 4 4 5 5 5 5 4 5 4 3 2 2 1 0 2 2 2 2 3 2 2 2 3 2 1 1 3 2 2 1 1 0 0 0 1 1 2 2 2 2 1
3 3 4 4 3 4 5 5 5 6 5 4 4 3 2 2 3 4 2 2 1 0 1 3 2 2 2 2 2 2 1 1 1 0 1 1 1 1 1 2 2 2 2
4 4 2 2 2 2 3 4 8 7 10 12 11 7 6 7 6 6 6 5 3 3 1 1 2 2 2 2 2 1 1 1 1 1 1 1 1 2 2 2 2 3 3
3 3 2 2 1 0 1 2 2 3 8 11 12 11 9 7 8 7 6 5 4 3 1 1 1 0 0 1 1 1 0 0 0 1 1 1 1 2 2 3 3 3 4
2 2 1 1 1 1 2 1 2 2 2 3 6 8 7 7 6 5 4 3 3 3 3 3 2 2 2 2 1 1 1 0 0 1 1 1 1 2 2 2 3 4 4
3 2 2 2 1 2 2 2 3 3 3 2 2 2 3 2 3 4 4 2 3 3 3 3 3 3 3 2 2 1 1 1 1 1 1 1 2 2 2 3 3 4 4
3 3 2 2 1 1 2 2 3 3 3 3 3 2 1 1 1 2 3 3 3 3 3 2 2 3 3 2 2 2 2 2 2 1 1 2 2 2 2 3 3 3 3
3 4 1 2 1 2 2 3 3 3 3 3 3 3 4 2 2 3 3 3 3 3 3 3 3 3 3 3 2 3 3 2 2 2 2 2 2 2 2 2 3 3 3
1 3 2 1 2 3 2 3 3 3 3 3 2 2 3 2 2 3 3 3 3 3 3 3 3 3 3 3 3 3 3 3 3 3 3 3 3 3 3 2 3 3 3
1 1 2 3 3 2 1 3 3 3 3 3 2 2 1 2 2 3 3 3 3 4 4 4 4 4 4 4 4 4 4 4 4 4 4 4 3 3 3 3 4 4 3
1 2 3 3 2 1 2 3 3 3 2 3 2 2 2 2 2 3 3 3 4 4 5 5 5 6 8 6 4 4 4 5 5 4 5 4 4 4 3 3 3 3 3
1 2 3 2 2 1 2 3 3 3 2 2 3 3 3 3 3 4 4 4 5 5 6 5 5 6 8 8 6 6 8 9 7 5 4 4 4 4 3 3 2 2 2
2 2 3 2 2 2 2 2 3 3 3 3 3 3 3 4 4 4 4 4 4 4 5 5 6 8 9 7 8 9 10 9 9 8 4 3 3 3 2 2 2 2 2
Wind_Direction
188 172 151 187 179 167 185 152 147 148 150 158 153 153 155 158 162 160 161 167 182 185 172 165 166 166 200 227 271 290 247 175 204 230 201 162 152 155 150 144 157 162 159
182 174 173 174 158 178 200 174 175 172 167 167 158 165 168 167 168 166 166 164 164 166 160 153 152 155 178 202 250 262 262 244 212 222 209 175 170 165 159 177 176 177 157
174 181 172 173 178 189 206 179 184 184 176 172 165 169 174 174 175 175 174 171 170 165 162 160 159 159 172 184 209 241 256 269 248 220 217 201 191 170 160 184 189 167 162
168 175 180 184 178 178 202 189 199 205 188 181 176 176 178 178 179 177 178 178 178 177 177 178 178 178 184 184 203 223 236 252 257 249 225 194 208 181 163 174 190 186 165
163 168 175 191 178 183 210 208 203 219 209 190 182 178 176 179 184 181 184 185 188 190 193 199 202 202 207 206 209 213 218 225 235 237 231 193 193 191 191 178 181 178 199
158 161 155 173 170 179 210 237 215 205 222 226 198 182 178 184 173 174 182 191 195 198 201 206 210 211 219 223 227 228 223 224 225 229 231 211 203 200 196 183 170 168 209
74 87 92 77 32 188 226 246 247 219 217 233 232 200 180 162 165 170 183 197 209 210 205 205 214 214 210 215 226 234 239 240 232 228 234 229 211 197 193 197 194 193 203
43 43 41 25 10 342 293 269 255 239 223 226 241 225 179 171 173 174 176 198 230 240 233 223 214 213 202 204 213 219 229 236 231 226 230 233 222 202 194 199 200 200 207
34 31 30 18 3 341 315 299 284 272 251 227 226 226 201 171 175 172 167 194 228 246 246 237 227 232 195 190 200 219 237 249 235 218 219 212 197 210 203 179 181 182 190
29 29 23 12 352 335 325 313 304 295 286 262 238 218 200 180 180 179 179 193 225 248 263 253 207 190 154 172 205 221 230 238 219 189 204 203 201 203 199 185 179 181 182
26 22 14 7 352 3 351 336 329 322 313 299 281 253 225 186 175 182 182 203 234 275 299 296 117 150 170 200 225 236 235 231 213 198 197 193 192 192 196 200 187 179 185
40 26 18 20 15 13 3 354 352 351 335 315 308 296 273 148 156 185 189 204 323 327 314 321 118 139 164 214 230 202 195 196 204 187 188 193 197 199 199 198 197 191 178
43 39 42 43 48 30 17 10 6 4 354 336 322 298 283 145 136 160 186 202 217 266 19 70 124 143 150 201 190 175 193 209 178 171 206 225 218 193 165 166 181 156 35
65 65 69 51 49 49 31 19 20 14 6 353 344 325 307 100 113 133 181 196 205 213 194 129 125 120 300 307 155 201 235 182 144 186 204 182 96 134 153 158 162 157 182
47 69 85 82 71 71 64 39 28 43 32 16 3 14 25 56 45 50 48 43 25 293 171 151 171 182 212 222 206 197 189 158 161 164 128 139 139 143 153 146 145 147 174
45 37 48 89 93 102 120 99 57 56 51 49 43 46 55 57 60 61 62 54 35 26 66 193 216 224 215 205 191 174 167 176 177 154 162 181 197 193 180 165 163 178 200
64 40 30 42 70 97 137 135 129 81 65 56 47 50 57 57 58 60 60 52 38 24 40 48 33 353 24 114 110 121 172 195 175 197 215 225 222 216 198 194 195 201 213
78 101 15 13 5 27 48 65 107 120 93 67 53 49 52 56 54 47 28 13 40 37 36 42 40 35 44 53 62 58 23 11 222 248 252 254 248 241 236 221 212 214 218
46 54 30 18 26 48 56 60 81 97 103 101 102 74 46 41 30 14 0 28 60 52 45 41 34 28 26 26 33 27 351 320 301 273 274 274 265 256 255 250 240 233 227
100 76 3 335 11 74 83 84 83 90 92 82 68 50 12 6 32 35 34 38 52 53 46 42 32 23 17 11 7 359 345 336 333 326 307 293 282 267 264 263 251 241 232
147 137 218 299 30 64 76 92 96 94 89 83 74 49 6 20 52 53 49 44 44 42 38 38 35 24 19 12 7 2 1 1 2 352 341 326 310 292 277 269 268 260 249
159 154 177 107 74 62 57 80 92 98 99 101 112 101 21 28 50 53 52 49 46 42 35 36 37 29 17 10 10 11 10 10 7 358 344 331 322 310 299 284 275 267 255
244 148 124 103 104 112 110 104 105 107 110 111 102 88 65 58 54 48 48 44 45 43 33 32 37 30 20 20 23 24 20 10 353 338 328 318 312 307 303 294 287 283 270
213 137 117 114 112 123 111 112 118 119 117 115 111 95 81 72 64 59 55 52 51 45 39 39 39 32 28 23 23 32 24 357 334 320 319 311 306 300 295 292 287 285 282
186 139 121 124 131 128 120 119 124 123 116 105 99 94 86 76 68 62 56 55 58 54 49 40 30 27 22 22 19 9 352 345 339 326 307 299 299 301 300 295 295 296 289
164 139 128 132 137 136 127 125 127 123 110 99 93 89 83 79 75 66 57 52 52 49 44 36 31 35 21 10 4 357 350 344 339 333 316 300 308 319 327 321 315 311 307